Temperature
7 6 6 7 6 6 6 6 6 6 7 8 8 9 9 9 9 9 9 10 10 10 10 10 10 10 10 10 10 10 10 10 10 10 10 9 9 9
6 6 6 6 6 6 5 5 5 5 6 7 7 7 8 8 8 8 8 9 9 9 9 9 9 9 9 9 9 9 10 10 10 10 9 9 9 9
5 5 5 5 5 5 5 5 5 5 5 5 6 6 7 7 7 7 8 8 8 8 8 8 8 9 9 9 9 9 9 9 9 9 9 9 9 9
4 4 4 4 4 4 4 4 4 4 3 4 5 5 6 6 6 6 6 7 7 7 7 8 8 8 8 8 8 8 8 9 9 9 9 9 9 9
3 3 3 3 3 2 2 2 2 2 2 2 3 4 4 4 5 5 5 5 6 6 6 6 7 7 7 7 7 8 8 8 8 8 8 8 8 8
2 2 1 1 1 1 1 1 1 1 1 1 1 2 2 3 3 3 4 4 5 5 5 5 6 6 6 6 6 7 7 7 7 7 8 8 8 8
1 0 0 0 -0 -0 -1 -1 -1 -1 -1 -1 -1 -0 0 1 1 1 1 2 3 3 4 4 4 5 5 5 6 6 6 6 6 7 7 7 7 7
-1 -1 -1 -1 -1 -1 -2 -2 -2 -2 -2 -2 -2 -2 -2 -1 -1 -1 -1 0 1 2 2 3 3 4 4 5 5 5 5 6 6 6 6 6 6 7
-2 -2 -2 -2 -2 -2 -2 -2 -3 -3 -3 -4 -3 -3 -3 -3 -3 -2 -2 -2 -1 0 0 1 2 3 3 3 4 4 5 5 5 5 5 5 6 6
-3 -3 -3 -3 -3 -4 -4 -4 -3 -3 -4 -4 -4 -4 -4 -4 -4 -4 -3 -3 -2 -1 -1 -0 1 1 2 2 3 3 4 4 4 4 4 5 5 5
-3 -4 -4 -4 -4 -5 -5 -5 -5 -4 -4 -4 -5 -5 -4 -4 -4 -4 -4 -4 -3 -2 -1 -1 -1 -0 1 1 2 2 3 3 3 3 3 4 4 4
-4 -4 -5 -5 -6 -6 -6 -6 -6 -5 -5 -5 -5 -5 -5 -4 -5 -5 -5 -5 -4 -4 -3 -2 -2 -1 -1 0 1 1 2 2 2 2 3 3 3 3
-5 -5 -5 -5 -6 -6 -6 -6 -6 -6 -6 -6 -5 -5 -5 -5 -5 -5 -5 -5 -5 -5 -4 -3 -3 -2 -2 -2 -1 0 1 1 1 2 2 2 3 3
-6 -6 -6 -6 -6 -6 -6 -7 -7 -7 -6 -6 -6 -6 -6 -6 -5 -5 -5 -5 -5 -5 -5 -4 -4 -3 -3 -3 -3 -1 -0 0 0 1 1 2 2 2
-6 -6 -7 -7 -7 -7 -7 -7 -7 -7 -7 -7 -7 -7 -7 -7 -6 -6 -6 -6 -5 -5 -5 -5 -4 -4 -4 -4 -3 -2 -2 -1 -0 -0 0 1 1 1
-7 -7 -7 -7 -7 -7 -7 -7 -8 -8 -8 -8 -8 -8 -8 -7 -7 -7 -7 -7 -6 -5 -5 -5 -5 -5 -4 -4 -3 -3 -2 -2 -1 -1 -1 -0 0 1
-8 -7 -7 -8 -8 -8 -8 -8 -8 -8 -8 -8 -9 -8 -8 -8 -8 -7 -7 -7 -7 -7 -6 -5 -5 -5 -5 -4 -4 -3 -3 -2 -2 -1 -1 -1 -1 0
-8 -8 -8 -8 -9 -9 -9 -9 -9 -9 -9 -9 -9 -9 -9 -9 -8 -8 -8 -8 -8 -7 -7 -6 -6 -5 -5 -4 -4 -3 -3 -3 -2 -2 -2 -2 -1 -0
-8 -8 -9 -9 -9 -9 -9 -9 -9 -9 -9 -9 -9 -9 -9 -9 -9 -9 -8 -8 -8 -8 -7 -6 -6 -6 -6 -6 -4 -4 -3 -3 -3 -3 -2 -2 -1 -1
-9 -9 -9 -9 -10 -10 -10 -10 -10 -10 -10 -10 -10 -9 -9 -9 -9 -9 -9 -9 -8 -8 -7 -7 -6 -6 -6 -6 -5 -4 -3 -3 -3 -3 -3 -2 -2 -1
-9 -9 -10 -10 -10 -10 -10 -10 -10 -10 -10 -10 -10 -10 -10 -10 -9 -9 -9 -9 -9 -8 -8 -7 -6 -6 -6 -6 -5 -4 -4 -3 -3 -3 -3 -3 -3 -2
-9 -10 -10 -10 -10 -10 -10 -10 -10 -10 -10 -10 -10 -10 -10 -10 -9 -9 -9 -9 -8 -8 -8 -7 -7 -6 -6 -6 -5 -5 -4 -4 -3 -3 -3 -3 -3 -2
-10 -10 -10 -10 -10 -10 -10 -10 -10 -10 -10 -10 -10 -10 -10 -9 -9 -9 -9 -9 -8 -8 -8 -7 -7 -6 -6 -6 -5 -5 -4 -4 -4 -4 -4 -3 -3 -2
Wind_Speed
4 5 4 4 3 3 3 4 6 7 7 4 3 2 4 5 8 8 10 14 17 19 20 19 18 18 18 19 19 19 18 19 19 21 21 20 21 20
5 6 5 5 4 4 4 4 4 5 6 3 3 4 4 6 8 8 10 12 16 18 18 17 17 17 18 18 18 18 18 18 19 20 21 21 22 22
7 7 7 6 5 5 4 4 4 4 7 6 4 5 5 6 7 7 9 9 10 14 16 17 17 16 17 18 19 19 19 19 19 21 21 22 22 22
7 7 7 7 7 6 5 5 4 4 5 8 6 5 6 6 7 7 7 7 8 11 14 16 16 16 16 16 18 19 18 19 19 20 21 21 21 21
6 7 7 7 7 6 6 6 5 5 4 6 7 6 5 6 7 7 6 6 7 9 11 13 14 14 15 15 16 18 18 18 19 20 20 20 20 21
6 6 6 6 6 7 6 6 6 6 5 6 6 6 6 6 6 6 7 6 7 7 9 9 11 13 14 15 16 16 17 18 19 20 20 19 19 20
6 6 6 8 10 8 7 7 7 6 5 6 6 6 6 6 6 6 8 7 7 5 6 6 6 7 9 12 14 15 16 17 18 19 19 20 19 19
6 7 7 8 11 13 14 13 11 8 7 6 6 7 8 8 7 8 8 8 6 3 5 7 5 7 7 8 12 15 16 16 17 18 18 19 19 19
6 6 7 8 10 7 11 13 11 13 11 8 8 8 8 8 9 9 8 9 9 6 6 8 5 7 6 9 13 15 16 17 17 17 18 19 19 20
5 6 7 8 9 10 8 8 8 8 10 7 7 8 8 8 8 9 10 10 9 7 5 7 5 6 6 6 12 15 17 17 17 18 18 19 19 19
6 6 7 7 13 15 10 9 10 9 12 14 14 14 16 16 13 7 7 8 10 7 4 4 4 5 5 6 9 14 15 15 17 18 19 19 18 17
6 6 10 11 15 16 10 9 10 9 9 10 10 12 10 11 13 8 6 7 8 7 4 3 4 3 4 4 4 6 8 13 16 17 18 18 17 12
6 6 7 15 17 17 14 9 12 12 8 8 8 8 7 6 6 6 6 6 8 8 5 4 4 4 4 5 5 6 7 7 8 10 15 17 18 15
7 7 9 17 18 17 13 13 17 14 7 7 7 7 7 7 6 7 8 9 10 11 10 7 6 6 6 8 7 5 5 6 6 7 7 13 15 18
8 13 16 17 16 11 13 16 13 7 7 7 7 7 6 7 7 7 8 9 10 11 11 10 9 8 8 8 8 7 6 6 6 7 7 8 8 9
9 11 15 15 12 12 11 9 7 6 7 7 8 7 7 7 7 7 8 8 9 9 9 11 11 10 10 9 9 9 7 6 6 7 7 7 7 7
9 6 5 6 6 6 6 6 6 6 7 6 7 8 8 8 8 7 7 8 9 10 9 7 8 9 11 10 10 10 9 8 8 7 6 7 8 8
9 6 6 7 7 7 8 7 7 7 7 7 7 7 8 9 9 8 8 8 10 10 10 8 6 6 5 7 11 11 9 8 7 7 7 8 9 8
6 6 7 7 7 8 8 8 8 8 7 7 8 8 8 8 9 9 9 9 9 10 9 8 7 6 8 9 6 9 9 7 7 7 8 7 8 8
5 6 7 7 8 8 8 8 9 9 8 8 8 8 8 8 9 9 9 9 10 10 10 8 7 7 9 8 7 6 9 9 7 7 6 4 3 5
7 7 7 8 8 8 8 8 9 9 9 8 8 8 8 8 9 9 9 13 12 9 10 9 9 10 7 4 5 5 4 8 8 6 5 5 4 4
7 8 8 8 8 8 8 8 9 9 9 8 8 8 8 8 9 11 10 10 10 9 10 9 8 6 5 6 7 5 4 2 2 4 4 5 5 6
8 8 8 8 8 8 8 9 10 9 9 8 8 8 8 9 9 9 10 10 9 9 9 8 7 5 5 5 5 4 3 3 2 2 0 1 3 4
Wind_Direction
1 353 346 338 331 315 302 281 269 274 270 255 251 272 277 279 272 265 256 247 241 240 242 244 243 236 233 232 232 231 231 229 229 227 226 224 223 225
9 10 3 349 342 333 323 313 295 277 274 284 277 307 305 299 289 278 270 264 246 241 240 243 243 238 234 232 231 228 230 229 230 229 228 229 228 225
17 14 5 355 351 345 335 326 314 302 284 294 304 313 304 297 295 290 279 271 264 252 247 244 243 241 237 233 229 227 230 229 228 229 229 230 229 225
13 12 6 1 358 350 340 328 317 306 290 293 299 306 299 300 293 287 286 286 281 269 256 250 244 242 239 236 230 226 227 227 226 227 227 229 228 225
10 9 4 4 358 349 346 341 326 317 305 297 299 305 302 314 305 296 292 284 289 282 270 260 254 250 244 239 235 228 227 227 226 225 226 226 226 226
6 2 359 358 350 343 341 337 332 329 323 313 308 307 309 314 312 307 304 296 289 285 275 272 267 258 249 243 238 231 228 228 227 225 223 220 220 221
357 354 352 352 352 350 345 341 338 331 324 320 314 315 314 322 318 310 300 300 291 275 269 264 264 257 252 247 241 232 229 230 230 227 224 219 215 216
347 343 341 344 345 344 341 338 335 327 323 316 311 310 313 315 318 313 308 303 296 291 282 277 259 258 253 249 248 240 231 229 228 226 224 221 216 215
338 335 336 336 338 326 328 332 328 325 319 309 302 301 302 306 305 304 305 302 291 290 291 277 261 259 256 258 249 243 235 230 227 227 225 223 220 218
321 318 316 318 325 326 321 319 311 307 307 304 290 289 292 292 288 291 294 296 290 278 263 269 268 265 272 255 251 242 234 231 228 226 226 225 221 220
314 317 318 311 320 325 321 313 309 304 309 307 303 301 302 303 302 303 302 299 296 291 264 260 270 281 273 260 251 241 234 232 232 230 227 224 220 218
310 307 314 318 319 321 316 308 305 304 305 307 304 303 300 300 302 294 289 289 289 289 276 270 273 294 289 262 254 244 239 237 235 232 228 224 217 213
310 307 305 317 318 319 318 308 306 310 305 302 299 296 293 290 288 283 273 270 275 271 280 283 270 265 263 280 276 258 242 239 231 229 226 223 218 212
306 303 304 314 316 317 317 313 314 317 308 303 299 298 298 295 291 286 279 270 264 266 270 263 262 264 269 277 274 258 246 237 229 230 225 222 222 218
300 306 310 313 316 314 312 314 317 312 304 300 298 295 289 286 288 290 287 280 274 269 266 254 250 257 256 263 265 259 261 248 228 224 220 217 216 208
303 304 311 313 312 309 310 311 306 297 301 295 296 293 291 291 291 291 294 297 293 286 265 253 246 245 255 259 256 257 246 231 220 221 221 228 220 212
312 307 306 307 305 300 299 297 296 297 298 292 294 297 300 300 297 294 289 291 288 288 289 270 246 243 246 249 251 246 242 241 230 223 222 231 228 214
319 311 307 305 304 306 307 307 303 300 297 295 294 295 298 298 297 295 290 288 286 285 284 279 275 277 270 255 233 236 235 234 228 218 220 228 230 216
315 302 301 304 304 305 304 302 301 300 297 293 289 288 288 290 291 292 292 289 286 286 283 277 265 257 265 271 252 222 226 234 225 225 223 229 227 213
303 302 302 304 303 301 300 299 298 299 296 293 290 286 284 286 288 289 288 285 287 288 286 278 265 254 252 261 268 264 231 224 223 226 229 229 223 194
306 303 301 300 299 297 295 295 294 294 292 291 289 286 284 285 286 286 286 289 290 285 284 281 273 271 266 255 255 257 244 225 219 217 210 201 197 186
301 301 300 298 297 294 292 293 294 293 292 289 288 287 285 283 284 286 287 288 287 284 284 285 280 270 251 247 251 251 255 242 216 203 209 210 197 190
299 299 298 297 296 293 290 290 291 291 290 288 287 286 286 285 284 284 285 285 286 288 290 291 289 276 259 246 248 243 223 204 180 162 207 142 164 166
Height
1454 1454 1453 1453 1453 1453 1452 1452 1452 1448 1445 1445 1446 1447 1448 1449 1450 1450 1451 1452 1454 1455 1456 1458 1459 1461 1463 1465 1467 1468 1470 1472 1473 1475 1477 1478 1480 1482
1451 1450 1450 1449 1448 1448 1447 1447 1446 1444 1440 1439 1440 1440 1441 1441 1442 1442 1443 1444 1444 1445 1447 1449 1451 1452 1454 1456 1458 1460 1461 1463 1465 1467 1469 1471 1473 1474
1448 1447 1446 1445 1444 1443 1442 1441 1440 1438 1436 1433 1434 1433 1433 1433 1433 1433 1434 1434 1435 1436 1437 1439 1441 1443 1444 1446 1448 1450 1452 1454 1457 1459 1461 1463 1465 1467
1445 1443 1442 1440 1439 1438 1436 1435 1434 1433 1431 1428 1427 1426 1426 1425 1424 1424 1424 1425 1425 1426 1427 1429 1431 1432 1435 1437 1439 1441 1443 1445 1448 1450 1452 1455 1457 1459
1442 1440 1438 1436 1435 1434 1432 1430 1429 1427 1426 1423 1421 1420 1419 1418 1417 1416 1416 1415 1416 1416 1417 1418 1420 1422 1424 1427 1429 1431 1433 1435 1438 1440 1443 1446 1448 1451
1439 1437 1435 1433 1432 1430 1428 1426 1424 1422 1420 1418 1415 1414 1413 1412 1411 1409 1407 1408 1407 1408 1408 1409 1410 1412 1414 1416 1419 1421 1423 1426 1428 1431 1433 1436 1439 1442
1437 1435 1433 1431 1429 1427 1425 1422 1420 1418 1416 1414 1411 1409 1407 1406 1405 1403 1402 1400 1399 1400 1400 1400 1401 1402 1404 1406 1408 1411 1413 1416 1418 1421 1424 1427 1430 1433
1434 1432 1429 1427 1425 1423 1421 1419 1417 1415 1412 1410 1407 1405 1403 1402 1400 1399 1397 1395 1393 1394 1393 1392 1393 1393 1394 1397 1398 1401 1404 1406 1409 1411 1414 1417 1421 1424
1430 1428 1426 1424 1422 1419 1417 1415 1413 1411 1410 1408 1404 1402 1399 1398 1396 1394 1392 1390 1388 1387 1387 1384 1385 1384 1386 1387 1389 1391 1394 1396 1399 1402 1405 1408 1411 1415
1427 1425 1422 1420 1417 1415 1412 1410 1408 1406 1405 1402 1400 1397 1396 1394 1393 1390 1388 1385 1382 1382 1381 1378 1377 1377 1377 1378 1380 1382 1385 1387 1390 1393 1396 1399 1402 1406
1424 1421 1419 1416 1414 1411 1409 1405 1403 1401 1399 1397 1395 1393 1391 1389 1388 1385 1383 1380 1376 1375 1375 1373 1371 1370 1369 1369 1371 1373 1376 1378 1381 1384 1387 1390 1394 1397
1419 1417 1415 1412 1409 1407 1404 1401 1398 1395 1393 1390 1388 1386 1384 1383 1381 1380 1378 1375 1372 1370 1369 1369 1366 1365 1362 1361 1363 1365 1367 1369 1372 1375 1378 1381 1385 1388
1415 1412 1410 1408 1405 1402 1400 1397 1394 1391 1387 1385 1382 1380 1378 1376 1374 1373 1371 1370 1367 1364 1364 1364 1361 1359 1358 1355 1355 1357 1359 1361 1363 1365 1369 1372 1376 1379
1411 1408 1405 1403 1400 1397 1395 1392 1389 1386 1382 1379 1376 1373 1371 1369 1367 1365 1364 1362 1360 1358 1357 1358 1355 1354 1352 1350 1348 1349 1351 1353 1355 1356 1359 1363 1366 1370
1407 1404 1401 1398 1395 1392 1389 1386 1383 1380 1377 1374 1370 1367 1365 1362 1360 1358 1356 1354 1352 1350 1349 1349 1348 1347 1346 1343 1342 1342 1342 1344 1347 1349 1351 1353 1357 1360
1402 1399 1396 1393 1390 1387 1384 1381 1378 1375 1372 1369 1365 1362 1359 1356 1354 1351 1348 1345 1342 1340 1340 1340 1339 1339 1337 1336 1335 1334 1335 1336 1338 1341 1343 1345 1348 1351
1397 1394 1390 1387 1384 1381 1378 1375 1372 1370 1367 1363 1360 1356 1353 1350 1348 1345 1342 1339 1336 1333 1330 1331 1331 1330 1329 1328 1327 1326 1327 1328 1331 1333 1335 1337 1339 1343
1393 1389 1386 1382 1379 1376 1373 1369 1367 1364 1361 1358 1355 1351 1348 1345 1342 1339 1337 1334 1330 1327 1324 1323 1322 1321 1321 1319 1320 1319 1320 1321 1323 1325 1328 1329 1331 1335
1388 1385 1381 1378 1375 1371 1368 1365 1361 1358 1355 1352 1349 1346 1343 1340 1337 1334 1331 1328 1324 1321 1319 1317 1316 1315 1313 1311 1310 1313 1313 1314 1315 1318 1320 1322 1323 1327
1384 1380 1377 1374 1370 1367 1363 1360 1356 1353 1349 1346 1343 1340 1337 1334 1331 1328 1325 1322 1318 1315 1313 1311 1310 1308 1307 1306 1304 1304 1307 1307 1309 1311 1313 1316 1318 1321
1379 1376 1373 1369 1366 1362 1358 1354 1351 1347 1344 1341 1337 1334 1331 1328 1325 1322 1319 1316 1313 1310 1307 1304 1303 1302 1301 1301 1299 1297 1300 1302 1303 1305 1307 1310 1312 1315
1374 1371 1368 1364 1361 1357 1353 1349 1345 1342 1338 1335 1332 1329 1326 1323 1320 1317 1314 1311 1307 1304 1301 1298 1297 1296 1295 1294 1293 1293 1294 1297 1299 1300 1303 1304 1306 1309
1370 1366 1363 1359 1356 1352 1348 1344 1340 1336 1333 1329 1326 1323 1320 1317 1314 1311 1308 1306 1302 1299 1296 1293 1291 1290 1289 1289 1289 1289 1290 1292 1294 1296 1298 1301 1303 1307